This is the latest recevied weather packets stored in our database for station/object KC9TVS-13. If no packets are shown the sender has not sent any weather packets the latest 10 day(s).
| Time | Temp. | Humidity | Pressure | Rain* | Wind** | Luminosity | Snow |
|---|---|---|---|---|---|---|---|
| 1788537195 | 29.44° C | 80% | 1015.3 hPa | 0 mm | - | 274 W/m² | - |
| 1788536897 | 29.44° C | 80% | 1015.1 hPa | 0 mm | - | 295 W/m² | - |
| 1788536596 | 29.44° C | 80% | 1015 hPa | 0 mm | - | 265 W/m² | - |
| 1788536296 | 29.44° C | 81% | 1015 hPa | 0 mm | - | 223 W/m² | - |
| 1788535996 | 29.44° C | 80% | 1014.9 hPa | 0 mm | - | 200 W/m² | - |
| 1788535697 | 30° C | 78% | 1014.8 hPa | 0 mm | - | 199 W/m² | - |
| 1788535396 | 30° C | 77% | 1015 hPa | 0 mm | - | 214 W/m² | - |
| 1788535096 | 30.56° C | 78% | 1015.1 hPa | 0 mm | - | 404 W/m² | - |
| 1788534797 | 30.56° C | 82% | 1015 hPa | 0 mm | - | 571 W/m² | - |
| 1788534494 | 30.56° C | 79% | 1015 hPa | 0 mm | - | 635 W/m² | - |
| 1788534194 | 30° C | 80% | 1014.9 hPa | 0 mm | - | 473 W/m² | - |
| 1788533895 | 30° C | 81% | 1014.9 hPa | 0 mm | - | 399 W/m² | - |
| 1788533594 | 30° C | 79% | 1014.9 hPa | 0 mm | - | 243 W/m² | - |
| 1788533294 | 30° C | 78% | 1014.8 hPa | 0 mm | - | 285 W/m² | - |
| 1788532995 | 30.56° C | 78% | 1014.8 hPa | 0 mm | - | 327 W/m² | - |
| 1788532694 | 30.56° C | 83% | 1014.8 hPa | 0 mm | - | 454 W/m² | - |
| 1788532395 | 30.56° C | 80% | 1014.8 hPa | 0 mm | - | 548 W/m² | - |
| 1788532093 | 30° C | 80% | 1014.7 hPa | 0 mm | - | 545 W/m² | - |
| 1788531795 | 30° C | 82% | 1014.8 hPa | 0 mm | - | 517 W/m² | - |
| 1788531494 | 30° C | 82% | 1014.6 hPa | 0 mm | - | 531 W/m² | - |
| 1788531194 | 29.44° C | 82% | 1014.6 hPa | 0 mm | - | 302 W/m² | - |
| 1788530893 | 29.44° C | 82% | 1014.6 hPa | 0 mm | - | 345 W/m² | - |
| 1788530592 | 28.89° C | 83% | 1014.5 hPa | 0 mm | - | 411 W/m² | - |
| 1788530292 | 28.89° C | 83% | 1014.6 hPa | 0 mm | - | 111 W/m² | - |
| 1788529989 | 28.89° C | 85% | 1014.6 hPa | 0 mm | - | 469 W/m² | - |
* Rain latest hour (hover to see other rain measurements)
** Current wind speed in m/s (hover to see current wind gust speed)